Flag for Spain Weather past 2 weeks in Arrecife, Canary Islands, Spain

Now
70 °F

Passing clouds.


Feels Like: 70 °F
Forecast: 70 / 81 °F
Wind: 20 mph from North

Location: Lanzarote / Aeropuerto

Current Time: Jul 5, 2015 at 12:10:47 AM

Latest Report: Jul 4, 2015 at 11:30 PM


Visibility: N/A

Pressure: 30.04 "Hg

Humidity: 83%

Dew point: 64 °F

Location of ArrecifeLocation

Historic Weather in Arrecife — Graph

°F

Arrecife temperature yesterday

Maximum temperature yesterday: 82 °F (at 3:00 PM)
Minimum temperature yesterday: 68 °F (at 6:00 AM)
Average temperature yesterday: 75 °F

Past Weeks' High & Low Weather Summary

 TemperatureHumidityPressure
High84 °F (Jun 29, 4:00 PM)94% (Jun 30, 7:00 AM)30.18 "Hg (Jun 30, 7:00 AM)
Low66 °F (Jun 30, 7:00 AM)42% (Jun 20, 2:00 PM)30.01 "Hg (Jun 30, 7:30 AM)
Average74 °F67%30.09 "Hg
* Reported Jun 19 11:00 PM — Jul 4 11:00 PM, Arrecife, Weather by CustomWeather, © 2015

Note: Actual official high and low records may vary slightly from our data, if they occured in-between our weather recording intervals... More about our weather records

Advertising

Arrecife weather history for previous 24 hours

 ConditionsComfort  
Time TempWeatherWind HumidityBarometerVisibility
11:00 PM
Sat, Jul 4
70 °FPassing clouds.15 mph83%30.04 "HgN/A
10:30 PM70 °FPassing clouds.12 mph83%30.04 "HgN/A
10:00 PM72 °FPassing clouds.16 mph78%30.04 "HgN/A
9:30 PM72 °FPassing clouds.18 mph78%30.04 "HgN/A
9:00 PM72 °FPassing clouds.14 mph78%30.04 "HgN/A
8:30 PM73 °FPassing clouds.20 mph74%30.07 "HgN/A
8:00 PM75 °FPassing clouds.17 mph69%30.07 "HgN/A
7:30 PM75 °FPassing clouds.20 mph65%30.04 "HgN/A
7:00 PM77 °FPassing clouds.20 mph61%30.04 "HgN/A
6:30 PM77 °FPassing clouds.20 mph61%30.04 "HgN/A
6:00 PM77 °FPassing clouds.21 mph61%30.07 "HgN/A
5:30 PM81 °FPassing clouds.23 mph54%30.07 "HgN/A
5:00 PM79 °FPassing clouds.22 mph58%30.07 "HgN/A
4:30 PM81 °FPassing clouds.23 mph54%30.07 "HgN/A
4:00 PM81 °FPassing clouds.22 mph54%30.07 "HgN/A
3:30 PM81 °FPassing clouds.23 mph54%30.09 "HgN/A
3:00 PM82 °FPassing clouds.20 mph51%30.09 "HgN/A
2:30 PM81 °FPassing clouds.23 mph54%30.09 "HgN/A
2:00 PM81 °FPassing clouds.22 mph54%30.09 "HgN/A
1:30 PM81 °FPassing clouds.22 mph54%30.09 "HgN/A
1:00 PM79 °FPassing clouds.23 mph54%30.09 "HgN/A
12:30 PM79 °FPassing clouds.22 mph54%30.12 "HgN/A
12:00 PM79 °FPassing clouds.21 mph54%30.12 "HgN/A
11:30 AM77 °FPassing clouds.21 mph57%30.12 "HgN/A
11:00 AM77 °FPassing clouds.22 mph57%30.12 "HgN/A
10:30 AM75 °FPassing clouds.18 mph65%30.12 "HgN/A
10:00 AM73 °FPassing clouds.20 mph65%30.12 "HgN/A
9:30 AM73 °FPassing clouds.21 mph69%30.09 "HgN/A
9:00 AM72 °FPassing clouds.20 mph69%30.09 "HgN/A
8:30 AM70 °FPassing clouds.17 mph78%30.09 "HgN/A
8:00 AM70 °FPassing clouds.15 mph78%30.09 "HgN/A
7:30 AM68 °FPassing clouds.14 mph83%30.09 "HgN/A
7:00 AM68 °FPassing clouds.17 mph78%30.09 "HgN/A
6:30 AM68 °FPassing clouds.15 mph83%30.07 "HgN/A
6:00 AM68 °FPassing clouds.18 mph83%30.07 "HgN/A
1:00 AM70 °FPassing clouds.13 mph78%30.12 "HgN/A
12:30 AM70 °FPassing clouds.16 mph78%30.15 "HgN/A
12:00 AM70 °FPassing clouds.16 mph78%30.15 "HgN/A
Weather by CustomWeather, © 2015

See weather overviewHow to use our weather pages